Date String (YYYY-MM-DD hh:mm:ss) UTC,Instrument flags,absolute air pressure of the measurement (hPa),sample flow rate (lpm),inlet stack bypass flow (lpm),air temperature of the measurement (°C),ambient temperature measured by the external sensor (°C),aerosol sample conditioner tube jacket temperature (°C),OPC LED temperature (°C),internal box temperature (°C),relative humidity of the measurement (%),span deviation,mass concentration of particles derived from Lorenz-Mie calculation of OPC scattering (μg/m³),mass concentration of particles derived from Lorenz-Mie calculation of OPC scattering (μg/m³),mass concentration of particles derived from Lorenz-Mie calculation of OPC scattering (μg/m³)
DateTimeUTC,F1_M11,P_M11,Q1_M11,Q2_M11,T1_M11,T2_M11,T3_M11,T4_M11,T5_M11,U1_M11,ZSPAN_M11,X0_M11,X2_M11,X1_M11
2023-09-16 09:00:00,SystemResetWarning,0836.1,5.00,000.00,027.4,025.8,000.0,035.9,029.0,19.6,0000.0,0006.87,0003.89,0003.54
2023-09-16 09:01:00,SystemResetWarning,0836.1,5.00,000.00,027.4,025.8,000.0,035.9,029.0,19.6,0000.0,0006.76,0003.89,0003.55
2023-09-16 09:02:00,SystemResetWarning,0836.1,5.00,000.00,027.4,025.8,000.0,035.9,029.0,19.6,0000.0,0006.66,0003.89,0003.55
2023-09-16 09:03:00,SystemResetWarning,0836.1,4.99,000.00,027.4,025.8,000.0,035.9,029.0,19.6,0000.0,0006.55,0003.88,0003.55
2023-09-16 09:04:00,SystemResetWarning,0836.1,5.00,000.00,027.4,025.8,000.0,035.9,029.0,19.5,0000.0,0006.89,0003.89,0003.55
2023-09-16 09:05:00,SystemResetWarning,0836.1,5.00,000.00,027.4,025.8,000.0,035.9,028.9,19.5,0000.0,0006.88,0003.91,0003.56
2023-09-16 09:06:00,SystemResetWarning,0836.1,5.00,000.00,027.4,025.8,000.0,035.9,028.9,19.5,0000.0,0006.71,0003.89,0003.56
2023-09-16 09:07:00,SystemResetWarning,0836.1,5.01,000.00,027.4,025.8,000.0,035.9,028.9,19.5,0000.0,0006.62,0003.88,0003.56
2023-09-16 09:08:00,SystemResetWarning,0836.1,5.01,000.00,027.4,025.8,000.0,035.9,029.0,19.5,0000.0,0006.65,0003.90,0003.57
2023-09-16 09:09:00,SystemResetWarning,0836.1,5.00,000.00,027.4,025.8,000.0,035.9,028.9,19.6,0000.0,0006.71,0003.91,0003.58
2023-09-16 09:10:00,SystemResetWarning,0836.1,4.99,000.00,027.4,025.8,000.0,035.9,028.9,19.6,0000.0,0006.63,0003.88,0003.57
2023-09-16 09:11:00,SystemResetWarning,0836.1,5.00,000.00,027.4,025.8,000.0,035.9,028.9,19.6,0000.0,0007.96,0003.90,0003.57
2023-09-16 09:12:00,SystemResetWarning,0836.1,4.99,000.00,027.4,025.8,000.0,035.9,028.9,19.7,0000.0,0008.15,0003.92,0003.57
2023-09-16 09:13:00,SystemResetWarning,0836.1,5.00,000.00,027.4,025.8,000.0,035.9,028.9,19.7,0000.0,0008.05,0003.89,0003.57
2023-09-16 09:14:00,SystemResetWarning,0836.1,5.00,000.00,027.4,025.8,000.0,035.9,028.9,19.5,0000.0,0007.94,0003.89,0003.57
2023-09-16 09:15:00,SystemResetWarning,0836.1,5.00,000.00,027.4,025.8,000.0,035.9,028.9,19.4,0000.0,0007.83,0003.92,0003.58
2023-09-16 09:16:00,SystemResetWarning,0836.1,5.01,000.00,027.4,025.8,000.0,035.9,028.9,19.5,0000.0,0007.92,0003.91,0003.57
2023-09-16 09:17:00,SystemResetWarning,0836.1,5.01,000.00,027.4,025.8,000.0,035.8,028.9,19.5,0000.0,0007.99,0003.95,0003.58
2023-09-16 09:18:00,SystemResetWarning,0836.1,5.00,000.00,027.4,025.8,000.0,035.9,028.9,19.6,0000.0,0008.01,0003.94,0003.57
2023-09-16 09:19:00,SystemResetWarning,0836.1,5.00,000.00,027.3,025.8,000.0,035.9,028.9,19.5,0000.0,0007.99,0003.93,0003.56
2023-09-16 09:20:00,SystemResetWarning,0836.1,5.00,000.00,027.3,025.8,000.0,035.8,028.9,19.3,0000.0,0008.01,0003.94,0003.56
2023-09-16 09:21:00,SystemResetWarning,0836.1,5.00,000.00,027.3,025.8,000.0,035.8,028.9,19.3,0000.0,0008.12,0003.96,0003.56
2023-09-16 09:22:00,SystemResetWarning,0836.1,5.00,000.00,027.3,025.8,000.0,035.8,028.9,19.3,0000.0,0007.19,0003.93,0003.56
2023-09-16 09:23:00,SystemResetWarning,0836.1,4.99,000.00,027.3,025.8,000.0,035.8,028.9,19.3,0000.0,0006.90,0003.91,0003.56
2023-09-16 09:24:00,SystemResetWarning,0836.1,4.99,000.00,027.3,025.8,000.0,035.8,028.9,19.3,0000.0,0007.09,0003.94,0003.56
2023-09-16 09:25:00,SystemResetWarning,0836.1,5.00,000.00,027.3,025.8,000.0,035.8,028.9,19.3,0000.0,0007.28,0003.97,0003.57
2023-09-16 09:26:00,SystemResetWarning,0836.1,5.01,000.00,027.3,025.7,000.0,035.8,028.9,19.5,0000.0,0006.93,0003.94,0003.57
2023-09-16 09:27:00,SystemResetWarning,0836.1,5.00,000.00,027.3,025.7,000.0,035.8,028.9,19.6,0000.0,0006.80,0003.94,0003.56
2023-09-16 09:28:00,SystemResetWarning,0836.0,5.00,000.00,027.3,025.7,000.0,035.8,028.9,19.6,0000.0,0006.93,0003.95,0003.55
2023-09-16 09:29:00,SystemResetWarning,0836.0,4.99,000.00,027.3,025.7,000.0,035.8,028.9,19.6,0000.0,0006.89,0003.95,0003.56
2023-09-16 09:30:00,SystemResetWarning,0835.9,5.00,000.00,027.3,025.7,000.0,035.8,028.9,19.6,0000.0,0006.89,0003.96,0003.57
2023-09-16 09:31:00,SystemResetWarning,0836.0,5.00,000.00,027.3,025.7,000.0,035.8,028.9,19.6,0000.0,0006.94,0003.96,0003.58
2023-09-16 09:32:00,SystemResetWarning,0835.9,4.99,000.00,027.3,025.7,000.0,035.8,028.8,19.8,0000.0,0007.95,0003.96,0003.58
2023-09-16 09:33:00,SystemResetWarning,0836.0,5.00,000.00,027.3,025.7,000.0,035.8,028.9,19.6,0000.0,0007.78,0003.98,0003.58
2023-09-16 09:34:00,SystemResetWarning,0836.0,5.01,000.00,027.3,025.7,000.0,035.8,028.8,19.6,0000.0,0007.85,0003.99,0003.58
2023-09-16 09:35:00,SystemResetWarning,0836.0,4.99,000.00,027.3,025.7,000.0,035.8,028.8,19.7,0000.0,0007.86,0003.99,0003.59
2023-09-16 09:36:00,SystemResetWarning,0835.9,4.99,000.00,027.3,025.7,000.0,035.8,028.8,19.7,0000.0,0008.00,0003.97,0003.58
2023-09-16 09:37:00,SystemResetWarning,0836.0,5.00,000.00,027.3,025.7,000.0,035.8,028.8,19.8,0000.0,0008.00,0003.97,0003.57
2023-09-16 09:38:00,SystemResetWarning,0835.9,5.01,000.00,027.3,025.7,000.0,035.8,028.8,19.7,0000.0,0007.97,0003.96,0003.58
2023-09-16 09:39:00,SystemResetWarning,0836.0,5.00,000.00,027.3,025.7,000.0,035.8,028.8,19.8,0000.0,0007.86,0003.93,0003.58
2023-09-16 09:40:00,SystemResetWarning,0835.9,5.00,000.00,027.3,025.7,000.0,035.8,028.8,20.0,0000.0,0007.90,0003.95,0003.58
2023-09-16 09:41:00,SystemResetWarning,0835.9,5.00,000.00,027.3,025.7,000.0,035.8,028.8,20.0,0000.0,0007.86,0003.93,0003.58
2023-09-16 09:42:00,SystemResetWarning,0835.9,4.99,000.00,027.2,025.6,000.0,035.8,028.8,19.7,0000.0,0008.00,0003.96,0003.58
2023-09-16 09:43:00,SystemResetWarning,0835.9,4.99,000.00,027.2,025.6,000.0,035.8,028.8,19.6,0000.0,0007.25,0003.96,0003.58
2023-09-16 09:44:00,SystemResetWarning,0835.9,5.02,000.00,027.2,025.6,000.0,035.7,028.8,19.7,0000.0,0006.75,0003.96,0003.58
2023-09-16 09:45:00,SystemResetWarning,0835.9,5.00,000.00,027.2,025.6,000.0,035.7,028.7,19.6,0000.0,0007.53,0003.98,0003.59
2023-09-16 09:46:00,SystemResetWarning,0835.9,4.99,000.00,027.2,025.6,000.0,035.7,028.7,19.7,0000.0,0007.59,0004.01,0003.59
2023-09-16 09:47:00,SystemResetWarning,0835.9,4.99,000.00,027.2,025.6,000.0,035.7,028.7,19.9,0000.0,0007.38,0004.02,0003.60
2023-09-16 09:48:00,SystemResetWarning,0835.9,5.01,000.00,027.2,025.6,000.0,035.7,028.7,19.6,0000.0,0007.31,0004.02,0003.60
2023-09-16 09:49:00,SystemResetWarning,0835.9,5.01,000.00,027.2,025.6,000.0,035.7,028.7,19.6,0000.0,0007.50,0004.02,0003.60
2023-09-16 09:50:00,SystemResetWarning,0835.9,5.00,000.00,027.2,025.6,000.0,035.7,028.7,19.6,0000.0,0007.62,0004.03,0003.60
2023-09-16 09:51:00,SystemResetWarning,0835.9,5.00,000.00,027.2,025.6,000.0,035.7,028.7,19.7,0000.0,0007.54,0004.01,0003.60
2023-09-16 09:52:00,SystemResetWarning,0835.9,4.99,000.00,027.2,025.6,000.0,035.7,028.7,19.8,0000.0,0007.58,0004.03,0003.61
2023-09-16 09:53:00,SystemResetWarning,0835.9,4.99,000.00,027.2,025.6,000.0,035.7,028.7,20.0,0000.0,0007.61,0004.03,0003.59
2023-09-16 09:54:00,SystemResetWarning,0835.9,5.00,000.00,027.2,025.6,000.0,035.7,028.7,19.8,0000.0,0007.57,0004.02,0003.59
2023-09-16 09:55:00,SystemResetWarning,0835.9,5.00,000.00,027.2,025.5,000.0,035.7,028.7,19.8,0000.0,0007.63,0004.04,0003.58
2023-09-16 09:56:00,SystemResetWarning,0835.8,5.01,000.00,027.2,025.5,000.0,035.7,028.7,19.7,0000.0,0007.02,0004.01,0003.57
2023-09-16 09:57:00,SystemResetWarning,0835.9,5.00,000.00,027.2,025.5,000.0,035.7,028.7,19.7,0000.0,0006.67,0003.97,0003.56
2023-09-16 09:58:00,SystemResetWarning,0835.8,5.01,000.00,027.2,025.5,000.0,035.7,028.6,19.9,0000.0,0006.81,0003.96,0003.55
2023-09-16 09:59:00,SystemResetWarning,0835.8,4.99,000.00,027.2,025.6,000.0,035.7,028.6,19.8,0000.0,0007.49,0003.95,0003.55
